Location: Unspecified
(0.0000°N, 0.0000°E)
Time: 13:52:31
(UTC+00:00)

Vanguard 1 - All Passes

Search period start: 01 August 2021 00:00
Search period end: 11 August 2021 00:00
Orbit: 651 x 3831 km, 34.2° (Epoch: 31 July)

Date Brightness Start Highest point End Pass type
(mag) Time Alt. Az. Time Alt. Az. Time Alt. Az.
01 Aug - 01:13:29 10° SSW 01:20:25 13° S 01:26:10 10° SSE night (unlit)
01 Aug - 03:40:50 10° SSW 03:48:32 20° SSE 03:53:54 10° ESE visible
01 Aug - 06:03:35 10° SW 06:11:21 77° SE 06:16:11 10° ENE daylight
01 Aug - 15:35:59 10° NNW 15:46:35 33° NE 16:03:16 10° E daylight
01 Aug - 17:55:20 10° NW 18:11:14 89° NE 18:35:10 10° SE visible
01 Aug - 20:20:20 10° W 20:39:28 43° SSW 21:00:36 10° SE visible
01 Aug - 22:56:28 10° WSW 23:11:16 20° SSW 23:23:48 10° SSE visible
02 Aug - 01:36:00 10° SSW 01:43:34 14° S 01:49:33 10° SSE visible
02 Aug - 04:01:24 10° SSW 04:10:27 27° SSE 04:16:12 10° ESE visible
02 Aug - 06:24:59 10° WSW 06:32:15 61° NW 06:36:57 10° NE daylight
02 Aug - 15:56:14 10° NNW 16:07:45 44° NE 16:26:47 10° ESE daylight
02 Aug - 18:16:31 10° WNW 18:32:49 76° SW 18:56:45 10° SE visible
02 Aug - 20:43:21 10° W 21:01:59 35° SSW 21:21:39 10° SSE visible
02 Aug - 23:21:54 10° SW 23:34:49 17° SSW 23:45:33 10° SSE visible
03 Aug - 01:57:33 10° SSW 02:06:26 16° S 02:13:00 10° SE visible
03 Aug - 04:22:11 10° SW 04:32:08 38° SSE 04:38:00 10° E visible
03 Aug - 06:46:50 10° WSW 06:52:59 34° NW 06:57:19 10° NNE daylight
03 Aug - 14:00:52 10° N 14:05:42 14° NE 14:11:48 10° ENE daylight
03 Aug - 16:16:41 10° NW 16:28:52 58° NE 16:49:39 10° ESE daylight
03 Aug - 18:38:00 10° WNW 18:54:39 62° SW 19:18:07 10° SE visible
03 Aug - 21:07:00 10° WSW 21:24:50 29° SSW 21:42:48 10° SSE visible
03 Aug - 23:46:49 10° SW 23:58:29 16° S 00:07:57 10° SSE visible
04 Aug - 02:18:39 10° SSW 02:28:59 21° SSE 02:36:05 10° ESE visible
04 Aug - 04:43:12 10° SW 04:53:33 57° SSE 04:59:22 10° ENE visible
04 Aug - 07:09:23 10° W 07:13:43 19° NW 07:17:10 10° N daylight
04 Aug - 14:19:54 10° N 14:27:03 21° NE 14:37:27 10° E daylight
04 Aug - 16:37:20 10° NW 16:50:02 73° NE 17:11:59 10° ESE daylight
04 Aug - 18:59:52 10° WNW 19:16:42 51° SSW 19:39:21 10° SE visible
04 Aug - 21:31:18 10° WSW 21:48:04 24° SSW 22:04:10 10° SSE visible
05 Aug - 00:10:39 10° SSW 00:22:03 16° S 00:31:01 10° SE visible
05 Aug - 02:39:37 10° SSW 02:51:17 26° SSE 02:58:38 10° ESE visible
05 Aug - 05:04:30 10° SW 05:14:42 87° SE 05:20:22 10° NE visible
05 Aug - 14:39:39 10° NNW 14:48:10 30° NE 15:01:48 10° E daylight
05 Aug - 16:58:12 10° NW 17:11:21 89° SW 17:33:56 10° SE daylight
05 Aug - 19:22:10 10° W 19:39:01 41° SSW 20:00:33 10° SE visible
05 Aug - 21:56:04 10° SW 22:11:38 21° SSW 22:25:57 10° SSE visible
06 Aug - 00:33:21 10° SSW 00:45:23 18° S 00:54:24 10° SE night (unlit)
06 Aug - 03:00:36 10° SW 03:13:17 35° SSE 03:20:42 10° E visible
06 Aug - 05:26:08 10° WSW 05:35:36 60° NW 05:41:04 10° NE visible
06 Aug - 14:59:47 10° NNW 15:09:07 41° NE 15:25:18 10° ESE daylight
06 Aug - 17:19:19 10° WNW 17:32:53 73° SW 17:55:35 10° SE daylight
06 Aug - 19:45:01 10° W 20:01:40 34° SSW 20:21:47 10° SSE visible
06 Aug - 22:20:55 10° SW 22:35:27 19° S 22:48:17 10° SSE visible
07 Aug - 00:55:15 10° SSW 01:08:25 21° SSE 01:17:39 10° ESE visible
07 Aug - 03:21:41 10° SW 03:35:01 48° SSE 03:42:19 10° ENE visible
07 Aug - 05:48:14 10° WSW 05:56:19 36° NW 06:01:24 10° NNE daylight
07 Aug - 13:07:42 10° NE 13:08:13 10° NE 13:08:44 10° NE daylight
07 Aug - 15:20:09 10° NW 15:30:03 56° NE 15:48:07 10° ESE daylight
07 Aug - 17:40:45 10° WNW 17:54:40 59° SSW 18:17:01 10° SE daylight
07 Aug - 20:08:25 10° WSW 20:24:41 28° SSW 20:43:13 10° SSE visible
07 Aug - 22:45:16 10° SW 22:59:21 18° S 23:11:16 10° SE visible
08 Aug - 01:16:43 10° SSW 01:31:07 26° SSE 01:40:30 10° ESE visible
08 Aug - 03:42:57 10° SW 03:56:29 67° SSE 04:03:35 10° ENE visible
08 Aug - 06:10:57 10° W 06:17:00 22° NW 06:21:18 10° N daylight
08 Aug - 13:24:14 10° N 13:29:24 17° NE 13:36:27 10° ENE daylight
08 Aug - 15:40:44 10° NW 15:51:05 74° NE 16:10:27 10° ESE daylight
08 Aug - 18:02:33 10° W 18:16:44 47° SSW 18:38:21 10° SE visible
08 Aug - 20:32:22 10° WSW 20:48:05 24° SSW 21:04:58 10° SSE visible
08 Aug - 23:08:45 10° SW 23:23:08 19° S 23:34:44 10° SE visible
09 Aug - 01:37:59 10° SW 01:53:29 33° SSE 02:02:54 10° E visible
09 Aug - 04:04:29 10° SW 04:17:39 87° NW 04:24:32 10° NE visible
09 Aug - 06:35:00 10° WNW 06:37:47 12° NW 06:40:10 10° NNW daylight
09 Aug - 13:43:40 10° N 13:50:21 26° NE 14:00:48 10° E daylight
09 Aug - 16:01:34 10° NW 16:12:18 87° SW 16:32:23 10° SE daylight
09 Aug - 18:24:45 10° W 18:39:06 38° SSW 18:59:40 10° SE visible
09 Aug - 20:56:41 10° SW 21:11:50 21° S 21:27:13 10° SSE visible
09 Aug - 23:31:20 10° SSW 23:46:39 22° S 23:58:15 10° SE visible
10 Aug - 01:59:13 10° SW 02:15:34 43° SSE 02:24:51 10° E visible
10 Aug - 04:26:21 10° WSW 04:38:35 60° NW 04:45:11 10° NE visible
10 Aug - 14:03:38 10° NNW 14:11:09 38° NE 14:24:10 10° ESE daylight
10 Aug - 16:22:39 10° WNW 16:33:46 69° SW 16:54:01 10° SE daylight
10 Aug - 18:47:28 10° WSW 19:01:48 31° SSW 19:21:04 10° SE visible
10 Aug - 21:20:57 10° SW 21:35:49 20° S 21:50:08 10° SE visible
